[[{"header":{"parameterUnit":"m.s-1","parameterCategory":1,"la1":30.2991,"la2":30.254,"lo1":-89.0895,"lo2":-89.0444,"dy":0.0017,"dx":0.0017,"nx":28,"ny":28,"refTime":"2023-09-21T21:00:00:Z","depth":0,"parameterNumber":2,"parameterNumberName":"U-component_of_WINDS"},"data":[0,0,0,0,0,0,0,0,0,0,0,0,0,0,0,0,0,0,0,0,0,0,0,0,0,0,0,0,0,0,0,0,0,0,0,0,0,0,0,0,0,0,0,0,0,0,0,0,0,0,0,0,0,0,0,0,0,0,-2.6732,-2.6732,0,-2.6728,-2.6728,-2.6728,-2.6645,-2.6643,-2.6641,-2.6639,-2.6638,-2.664,-2.6642,0,0,0,0,0,0,0,0,0,0,0,0,0,-2.6674,-2.6675,-2.6732,-2.6732,-2.6732,-2.6728,-2.6728,-2.6728,-2.6646,-2.6643,-2.664,-2.6638,-2.6637,-2.664,-2.6642,0,0,0,0,0,0,0,0,0,0,0,0,0,-2.6687,-2.6676,-2.6732,-2.669,-2.6687,-2.6728,-2.6728,-2.6728,-2.6646,-2.6643,-2.664,-2.6637,-2.6637,-2.6639,-2.6642,-2.6724,0,0,-2.6651,-2.6653,0,0,0,0,0,0,0,0,-2.6687,-2.6689,-2.6696,-2.6693,-2.6689,-2.6684,-2.6707,-2.6727,-2.6647,-2.6662,-2.6639,-2.6635,-2.6656,-2.6657,-2.6663,-2.6724,-2.6724,-2.6652,-2.6653,-2.6655,-2.6655,0,0,0,0,0,0,0,-2.6686,-2.6689,-2.673,-2.6697,-2.6692,-2.6673,-2.6672,-2.671,-2.6677,-2.666,-2.6654,-2.6655,-2.6653,-2.6661,-2.6663,-2.6724,-2.6651,-2.6654,-2.6656,-2.6657,-2.6855,-2.6858,0,0,0,0,0,0,-2.669,-2.6689,-2.673,-2.673,-2.668,-2.6677,-2.6675,-2.6689,-2.6676,-2.6671,-2.6657,-2.6651,-2.6657,-2.6659,-2.6662,-2.676,-2.6655,-2.6657,-2.6659,-2.6852,-2.6856,-2.686,0,0,0,0,0,0,-2.6689,-2.6694,-2.6731,-2.6708,-2.6711,-2.6681,-2.6697,-2.669,-2.6697,-2.6674,-2.6668,-2.6671,-2.6655,-2.6658,-2.671,-2.6758,-2.6659,-2.6661,-2.6847,-2.6853,-2.6858,-2.6953,0,0,0,0,0,0,-2.6688,-2.6695,-2.6724,-2.6709,-2.6713,-2.6777,-2.67,-2.6693,-2.6702,-2.6694,-2.6685,-2.668,-2.6653,-2.6706,-2.6713,-2.6761,-2.6664,-2.6843,-2.685,-2.6856,-2.6946,-2.6961,-2.6975,0,0,0,0,0,-2.6686,-2.6751,-2.6726,-2.6731,-2.6749,-2.678,-2.6782,-2.6748,-2.6707,-2.6737,-2.6722,-2.6681,-2.6752,-2.6712,-2.6719,-2.6768,-2.684,-2.6848,-2.6856,-2.6939,-2.6958,-2.6974,0,0,0,0,0,0,-2.6773,-2.6748,-2.672,-2.6782,-2.6784,-2.6766,-2.6803,-2.6768,-2.6782,-2.6774,-2.6732,-2.673,-2.679,-2.6784,-2.674,-2.6849,-2.6789,-2.6798,-2.685,-2.6868,-2.6882,-2.6883,-2.6666,0,0,0,0,0,-2.6799,-2.6825,-2.6803,-2.686,-2.6862,-2.6833,-2.6845,-2.6819,-2.6819,-2.6819,-2.6808,-2.6811,-2.6834,-2.6851,-2.687,-2.6944,-2.6943,-2.6982,-2.6997,-2.7008,-2.7018,-2.706,-2.7078,-2.6886,-2.6885,-2.6885,0,0,-2.6854,-2.6844,-2.6863,-2.6877,-2.6875,-2.6905,-2.6834,-2.6867,-2.689,-2.6825,-2.6873,-2.6866,-2.6866,-2.693,-2.6958,-2.6927,-2.7071,-2.7018,-2.7028,-2.7031,-2.707,-2.7088,-2.7104,-2.6891,-2.689,-2.6889,0,0,-2.6969,-2.6963,-2.7011,-2.7011,-2.7009,-2.699,-2.7002,-2.6989,-2.6982,-2.7029,-2.6982,-2.7009,-2.7049,-2.7052,-2.7059,-2.7179,-2.7143,-2.7187,-2.7262,-2.7304,-2.7319,-2.7332,-2.7378,-2.7394,-2.7196,-2.7196,-2.7196,0,-2.7038,-2.708,-2.7041,-2.7079,-2.7088,-2.703,-2.708,-2.7082,-2.7087,-2.7095,-2.7061,-2.7112,-2.7108,-2.7173,-2.7203,-2.721,-2.7224,-2.7188,-2.732,-2.7333,-2.7344,-2.7387,-2.7404,-2.7202,-2.7201,-2.72,-2.72,0,-2.7166,-2.7196,-2.7235,-2.7241,-2.7255,-2.7298,-2.7268,-2.7287,-2.726,-2.7245,-2.7296,-2.729,-2.7309,-2.7322,-2.7296,-2.7385,-2.7367,-2.7327,-2.7266,-2.7369,-2.7409,-2.7425,-2.721,-2.7208,-2.7206,-2.7205,0,0,-2.7335,-2.7321,-2.7336,-2.734,-2.7334,-2.7357,-2.74,-2.7418,-2.7436,-2.7442,-2.7478,-2.7515,-2.7478,-2.7486,-2.7461,-2.7497,-2.7596,-2.7452,-2.7452,-2.7481,-2.7697,-2.7729,-2.7748,-2.7571,-2.7574,-2.7576,-2.7698,0,-2.7448,-2.7519,-2.7486,-2.7561,-2.759,-2.7537,-2.7574,-2.7576,-2.7564,-2.7588,-2.7574,-2.7602,-2.755,-2.7556,-2.7589,-2.7577,-2.7639,-2.7567,-2.7607,-2.7609,-2.761,-2.7768,-2.7801,-2.7916,-2.7713,-2.7715,-2.7717,0,-2.7589,-2.7602,-2.768,-2.7672,-2.7683,-2.7717,-2.7732,-2.7755,-2.7757,-2.7746,-2.7757,-2.7723,-2.7767,-2.7706,-2.7767,-2.7719,-2.7733,-2.773,-2.7734,-2.7738,-2.767,-2.7778,-2.7951,-2.797,-2.7741,-2.7739,-2.7737,0,-2.7709,-2.7744,-2.7796,-2.7801,-2.7792,-2.7818,-2.7815,-2.7814,-2.7828,-2.7842,-2.7852,-2.7871,-2.7882,-2.7899,-2.7873,-2.783,-2.7939,-2.7874,-2.7933,-2.7934,-2.7959,-2.7958,-2.8139,-2.7965,-2.7965,-2.7965,-2.7964,0,-2.7839,-2.789,-2.785,-2.7882,-2.7938,-2.7901,-2.7958,-2.795,-2.795,-2.7982,-2.7937,-2.7968,-2.793,-2.7958,-2.7938,-2.7994,-2.7998,-2.7992,-2.7987,-2.7997,-2.7999,-2.8007,-2.8,-2.7969,-2.7968,-2.7967,-2.7966,0,-2.7982,-2.7957,-2.801,-2.7998,-2.7996,-2.8039,-2.8029,-2.8059,-2.8044,-2.8085,-2.8093,-2.807,-2.8101,-2.8076,-2.8106,-2.8093,-2.8167,-2.8149,-2.8166,-2.8162,-2.8222,-2.8218,-2.8417,-2.8442,-2.8251,-2.8252,-2.8254,0,-2.8068,-2.8105,-2.8098,-2.8115,-2.8116,-2.8144,-2.8158,-2.8124,-2.8142,-2.8149,-2.8179,-2.8206,-2.8226,-2.8279,-2.8266,-2.829,-2.8273,-2.8341,-2.8277,-2.8287,-2.8277,-2.8276,-2.8281,-2.8355,-2.8357,-2.8359,-2.8361,0,-2.8224,-2.821,-2.8231,-2.825,-2.8268,-2.8281,-2.8291,-2.8308,-2.8274,-2.8296,-2.8326,-2.8342,-2.8373,-2.8402,-2.8422,-2.8421,-2.8387,-2.8381,-2.8396,-2.8408,-2.8418,-2.8416,-2.8204,-2.8377,-2.8375,-2.8374,-2.8373,-2.8373,-2.8342,-2.8374,-2.8374,-2.8401,-2.8404,-2.8415,-2.8444,-2.8433,-2.8458,-2.848,-2.8459,-2.8497,-2.8502,-2.8525,-2.8529,-2.856,-2.8532,-2.8553,-2.8559,-2.8565,-2.8575,-2.8412,-2.8563,-2.8563,-2.8562,-2.8562,-2.8561,0,-2.8498,-2.8496,-2.852,-2.8535,-2.8557,-2.8521,-2.8531,-2.8552,-2.8586,-2.8592,-2.8613,-2.865,-2.8678,-2.8669,-2.8694,-2.8721,-2.8706,-2.8729,-2.8728,-2.8729,-2.8597,-2.8583,-2.8741,-2.8741,-2.8741,-2.8741,-2.8741,-2.8741,-2.8581,-2.8635,-2.8622,-2.8678,-2.8675,-2.8712,-2.8721,-2.8731,-2.8737,-2.878,-2.8803,-2.8796,-2.8797,-2.8823,-2.8848,-2.8845,-2.8857,-2.8887,-2.8878,-2.8756,-2.8738,-2.8721,-2.8707,-2.8889,-2.8889,-2.9007,-2.9009,-2.9009]},{"header":{"parameterUnit":"m.s-1","parameterCategory":1,"la1":30.2991,"la2":30.254,"lo1":-89.0895,"lo2":-89.0444,"dy":0.0017,"dx":0.0017,"nx":28,"ny":28,"refTime":"2023-09-21T21:00:00:Z","depth":0,"parameterNumber":3,"parameterNumberName":"V-component_of_WINDS"},"data":[0,0,0,0,0,0,0,0,0,0,0,0,0,0,0,0,0,0,0,0,0,0,0,0,0,0,0,0,0,0,0,0,0,0,0,0,0,0,0,0,0,0,0,0,0,0,0,0,0,0,0,0,0,0,0,0,0,0,1.9271,1.9271,0,1.9221,1.922,1.922,1.9201,1.9202,1.9202,1.9202,1.9145,1.9143,1.9142,0,0,0,0,0,0,0,0,0,0,0,0,0,1.9346,1.9345,1.9271,1.9271,1.927,1.9221,1.922,1.9219,1.9201,1.9202,1.9202,1.9202,1.9145,1.9143,1.9141,0,0,0,0,0,0,0,0,0,0,0,0,0,1.9306,1.9344,1.9271,1.9255,1.9253,1.9221,1.922,1.9219,1.9201,1.9202,1.9202,1.9202,1.9146,1.9144,1.9141,1.912,0,0,1.9133,1.9132,0,0,0,0,0,0,0,0,1.9309,1.9304,1.9258,1.9256,1.9254,1.9218,1.9226,1.9186,1.9201,1.9221,1.9202,1.9202,1.9169,1.9164,1.9154,1.9117,1.9114,1.9133,1.9132,1.913,1.913,0,0,0,0,0,0,0,1.9311,1.9306,1.9251,1.9257,1.9255,1.9249,1.9243,1.9218,1.9193,1.9219,1.9218,1.9212,1.9167,1.9156,1.9152,1.9114,1.9133,1.9131,1.9129,1.9128,1.9054,1.9054,0,0,0,0,0,0,1.9318,1.9308,1.9253,1.925,1.9283,1.9247,1.9241,1.9229,1.9194,1.9189,1.9212,1.9212,1.9161,1.9155,1.915,1.9122,1.9131,1.9128,1.9127,1.9055,1.9054,1.9054,0,0,0,0,0,0,1.9319,1.9313,1.9255,1.9278,1.9271,1.9245,1.9232,1.9228,1.9217,1.9189,1.9184,1.9206,1.9161,1.9154,1.9127,1.9119,1.9127,1.9125,1.9055,1.9055,1.9054,1.9065,0,0,0,0,0,0,1.9322,1.9314,1.9307,1.9279,1.9269,1.9234,1.9232,1.9227,1.9213,1.9212,1.9181,1.9176,1.916,1.9131,1.9125,1.9116,1.9123,1.9056,1.9055,1.9054,1.9065,1.9065,1.9064,0,0,0,0,0,1.9324,1.9311,1.9306,1.93,1.926,1.9234,1.9229,1.9212,1.9213,1.9204,1.9186,1.9177,1.9122,1.9129,1.9121,1.9112,1.9056,1.9055,1.9054,1.9065,1.9065,1.9064,0,0,0,0,0,0,1.9337,1.9307,1.9302,1.9279,1.926,1.9231,1.922,1.9212,1.9191,1.9191,1.9169,1.9162,1.9137,1.9122,1.913,1.9088,1.9088,1.9086,1.9099,1.9098,1.9098,1.9102,1.9121,0,0,0,0,0,1.9338,1.9321,1.9295,1.9277,1.9268,1.9246,1.9234,1.9223,1.9201,1.9192,1.9171,1.9149,1.9126,1.9111,1.9089,1.9063,1.9055,1.9052,1.9052,1.9052,1.905,1.9033,1.9031,1.9051,1.9051,1.9051,0,0,1.9338,1.932,1.931,1.9279,1.9263,1.9244,1.9239,1.9219,1.9204,1.9188,1.9162,1.9146,1.9119,1.9093,1.908,1.9079,1.9043,1.9051,1.9051,1.9049,1.9032,1.903,1.9028,1.905,1.905,1.905,0,0,1.9329,1.9314,1.9297,1.9281,1.9257,1.9242,1.9238,1.9211,1.92,1.9174,1.9161,1.9142,1.9104,1.9085,1.907,1.9053,1.9043,1.9046,1.9043,1.9027,1.9026,1.9024,1.9017,1.9014,1.9044,1.9044,1.9044,0,1.9332,1.9305,1.9289,1.927,1.9256,1.9243,1.9224,1.9208,1.9177,1.9167,1.9167,1.9118,1.9099,1.9067,1.9063,1.9052,1.9045,1.9049,1.9028,1.9026,1.9024,1.9017,1.9014,1.9044,1.9044,1.9044,1.9044,0,1.9309,1.929,1.9279,1.9251,1.9236,1.9217,1.9197,1.9183,1.9173,1.9157,1.913,1.9107,1.9079,1.907,1.906,1.9036,1.9036,1.9032,1.9032,1.9023,1.9015,1.9012,1.9045,1.9045,1.9044,1.9044,0,0,1.9307,1.927,1.9267,1.9253,1.9224,1.9208,1.9188,1.9162,1.915,1.9128,1.9109,1.9077,1.9073,1.9056,1.9043,1.903,1.9015,1.9027,1.9026,1.9024,1.8985,1.8988,1.8985,1.9009,1.9009,1.9008,1.8987,0,1.9294,1.9259,1.9244,1.9215,1.9196,1.9182,1.9164,1.9143,1.9128,1.9108,1.909,1.9067,1.9065,1.9054,1.904,1.902,1.9007,1.9022,1.8989,1.8988,1.8995,1.8981,1.8984,1.8966,1.8984,1.8984,1.8983,0,1.9274,1.9253,1.9223,1.9196,1.9187,1.9171,1.9146,1.9127,1.9103,1.9092,1.9074,1.9061,1.9037,1.9039,1.9004,1.9014,1.9,1.8988,1.8987,1.8982,1.8985,1.8975,1.8959,1.8956,1.8979,1.8979,1.898,0,1.9274,1.9239,1.9216,1.9205,1.9172,1.9161,1.9147,1.9123,1.9108,1.9085,1.9074,1.9048,1.9033,1.9012,1.8992,1.8996,1.8958,1.8959,1.8947,1.8948,1.8939,1.894,1.892,1.8932,1.8932,1.8932,1.8932,0,1.926,1.9241,1.9215,1.9201,1.9179,1.9161,1.9139,1.9123,1.9102,1.9083,1.9069,1.905,1.9026,1.9004,1.8988,1.896,1.8954,1.8943,1.8939,1.8944,1.8945,1.8933,1.8934,1.8932,1.8932,1.8932,1.8932,0,1.9256,1.9239,1.9212,1.9184,1.9176,1.9161,1.9136,1.912,1.9104,1.908,1.9073,1.9047,1.902,1.8999,1.8963,1.8952,1.8923,1.8919,1.8932,1.8929,1.8918,1.8919,1.8889,1.8884,1.8901,1.8901,1.8901,0,1.9249,1.9234,1.9204,1.9191,1.9177,1.9156,1.9141,1.9122,1.9106,1.9076,1.9063,1.9036,1.9013,1.8971,1.8947,1.892,1.8914,1.8905,1.8909,1.8914,1.8912,1.8912,1.891,1.8904,1.8904,1.8904,1.8904,0,1.9236,1.9227,1.9207,1.9182,1.9165,1.9145,1.9124,1.9113,1.9089,1.9072,1.9045,1.9028,1.8992,1.8964,1.8934,1.8916,1.8905,1.8903,1.8899,1.8903,1.8911,1.8905,1.8929,1.8904,1.8904,1.8904,1.8904,1.8904,1.9229,1.9215,1.9191,1.9168,1.9151,1.9131,1.9115,1.9097,1.9075,1.9045,1.9035,1.9007,1.898,1.8939,1.8921,1.8897,1.8896,1.889,1.8888,1.8887,1.8887,1.8916,1.8892,1.8892,1.8892,1.8892,1.8892,0,1.9214,1.9198,1.9177,1.9149,1.913,1.9123,1.9099,1.9084,1.906,1.9037,1.9015,1.8983,1.8955,1.893,1.89,1.8886,1.888,1.8879,1.8879,1.8875,1.889,1.8896,1.8884,1.8884,1.8884,1.8884,1.8884,1.8884,1.9205,1.918,1.9168,1.9134,1.9118,1.9091,1.9078,1.9059,1.904,1.9006,1.8984,1.8968,1.8943,1.8912,1.8885,1.8878,1.8867,1.8867,1.8858,1.8873,1.8874,1.8875,1.8881,1.8865,1.8865,1.8845,1.8845,1.8844]}]]